Location: Unspecified
(0.0000°N, 0.0000°E)
Time: 04:28:39
(UTC+02:00)

GP-B - Visible Passes

Search period start: 27 May 2017 00:00
Search period end: 06 June 2017 00:00
Orbit: 632 x 635 km, 89.8° (Epoch: 26 May)

Date Brightness Start Highest point End Pass type
(mag) Time Alt. Az. Time Alt. Az. Time Alt. Az.
27 May 5.5 05:27:17 10° NNE 05:28:36 19° NNE 05:28:36 19° NNE visible
28 May 5.3 05:48:54 10° N 05:50:02 18° N 05:50:02 18° N visible
29 May 5.5 06:11:14 10° NNW 06:11:30 11° NNW 06:11:30 11° NNW visible
